Terug naar catalogus

STARLINK-11204

ActiefCommunicatieVLEO
NORAD 60931·PAYLOAD·🇺🇸 United States

Gelanceerd Aug 31, 2024 vanaf Vandenberg Space Force Base

Loading…

Volgende Passages (komende 24 uur)

TLE

VersSource: CelesTrak SupGP

Epoch: Sep 15, 2026, 01:57 UTC

1 60931C 24155H   26258.08173611  .00047288  00000+0  38948-3 0  2587
2 60931  53.1567 127.4681 0001141  88.2585 163.0661 15.69688377    14

Volg STARLINK-11204 in realtime met AllMySat

Download on the App Store